Augusta, ME

1:12 AM EST on February 25, 2017 (GMT -0500)
Augusta State

Weather History for KAUG - February, 2014

Change the Weather History Date:

Tuesday, February 11, 2014

  Actual Average Record
Temperature  
Mean Temperature 11 °F 22 °F  
Max Temperature 19 °F 31 °F 56 °F (1981)
Min Temperature 3 °F 14 °F -9 °F (1979)
Degree Days  
Heating Degree Days 54 43  
Month to date heating degree days 484  
Since 1 July heating degree days 4655  
Cooling Degree Days 0 0  
Month to date cooling degree days 0  
Year to date cooling degree days 0  
Moisture  
Dew Point -2 °F    
Average Humidity 54    
Maximum Humidity 70    
Minimum Humidity 35    
Precipitation  
Precipitation 0.00 in 0.08 in 2.04 in (1970)
Month to date precipitation 0.92  
Year to date precipitation 3.53  
Sea Level Pressure  
Sea Level Pressure 30.25 in    
Wind  
Wind Speed 6 mph (WNW)    
Max Wind Speed 17 mph    
Max Gust Speed 25 mph    
Visibility 10 miles    
Events      
T = Trace of Precipitation, MM = Missing Value Source: NWS Daily Summary

Daily Weather History Graph

Daily Weather History Graph

Search for Another Location

Airport or City:

Trip Planner

Search our weather history database for the weather conditions in past years. The results will help you decide how hot, cold, wet, or windy it might be!

Date:

Astronomy

Feb. 11, 2014 Rise Set
Actual Time 6:44 AM EST 5:02 PM EST
Civil Twilight 6:14 AM EST 5:32 PM EST
Nautical Twilight 5:40 AM EST 6:07 PM EST
Astronomical Twilight 5:06 AM EST 6:40 PM EST
Moon 2:17 PM EST (2/11) 4:22 AM EST (2/11)
Length of Visible Light 11h 18m
Length of Day
10h 18m
Waxing Gibbous, 90% of the Moon is Illuminated
Feb 11
Waxing Gibbous
Feb 14
Full
Feb 22
Last Quarter
Mar 1
New
Mar 8
First Quarter

Hourly Weather History & Observations

Time (EST) Temp. Windchill Dew Point Humidity Pressure Visibility Wind Dir Wind Speed Gust Speed Precip Events Conditions
12:53 AM 12.0 °F 4.1 °F 1.0 °F 61% 30.17 in 10.0 mi WNW 4.6 mph - N/A   Overcast
1:53 AM 10.9 °F 2.9 °F 1.0 °F 64% 30.17 in 10.0 mi West 4.6 mph - N/A   Clear
2:53 AM 10.9 °F 2.9 °F 1.0 °F 64% 30.17 in 10.0 mi West 4.6 mph - N/A   Clear
3:53 AM 10.9 °F 1.4 °F 1.0 °F 64% 30.18 in 10.0 mi WNW 5.8 mph - N/A   Clear
4:53 AM 10.0 °F 1.8 °F 1.0 °F 67% 30.20 in 10.0 mi West 4.6 mph - N/A   Clear
5:53 AM 9.0 °F -0.9 °F 1.0 °F 70% 30.21 in 10.0 mi WNW 5.8 mph - N/A   Clear
6:53 AM 8.1 °F 1.4 °F -0.0 °F 70% 30.23 in 10.0 mi West 3.5 mph - N/A   Clear
7:53 AM 9.0 °F - 1.0 °F 70% 30.23 in 10.0 mi Calm Calm - N/A   Clear
8:53 AM 12.9 °F - 1.0 °F 59% 30.23 in 10.0 mi Calm Calm - N/A   Clear
9:53 AM 15.1 °F 3.3 °F -0.0 °F 51% 30.23 in 10.0 mi West 9.2 mph - N/A   Clear
10:53 AM 16.0 °F 5.3 °F -2.0 °F 45% 30.23 in 10.0 mi WNW 8.1 mph - N/A   Clear
11:53 AM 18.0 °F 4.2 °F -2.0 °F 41% 30.22 in 10.0 mi West 13.8 mph 21.9 mph N/A   Scattered Clouds
12:53 PM 19.0 °F 9.0 °F -2.0 °F 40% 30.21 in 10.0 mi WNW 8.1 mph - N/A   Clear
1:53 PM 19.0 °F 5.0 °F -4.0 °F 36% 30.19 in 10.0 mi NW 15.0 mph 21.9 mph N/A   Partly Cloudy
2:53 PM 19.9 °F 5.2 °F -4.0 °F 35% 30.21 in 10.0 mi WNW 17.3 mph 25.3 mph N/A   Clear
3:53 PM 19.0 °F 6.8 °F -2.9 °F 38% 30.23 in 10.0 mi NW 11.5 mph 19.6 mph N/A   Clear
4:53 PM 16.0 °F 2.3 °F -4.0 °F 41% 30.26 in 10.0 mi WNW 12.7 mph 24.2 mph N/A   Clear
5:53 PM 14.0 °F 2.0 °F -4.0 °F 45% 30.30 in 10.0 mi NW 9.2 mph - N/A   Clear
6:53 PM 10.9 °F -3.4 °F -5.1 °F 49% 30.32 in 10.0 mi NW 11.5 mph 21.9 mph N/A   Clear
7:53 PM 9.0 °F -3.2 °F -6.0 °F 51% 30.34 in 10.0 mi NW 8.1 mph - N/A   Clear
8:53 PM 7.0 °F -5.7 °F -7.1 °F 53% 30.36 in 10.0 mi WNW 8.1 mph - N/A   Clear
9:53 PM 5.0 °F -2.1 °F -7.1 °F 58% 30.38 in 10.0 mi NW 3.5 mph - N/A   Clear
10:53 PM 3.9 °F -5.3 °F -8.0 °F 58% 30.38 in 10.0 mi WNW 4.6 mph - N/A   Clear
11:53 PM 3.9 °F -3.4 °F -9.0 °F 55% 30.39 in 10.0 mi West 3.5 mph - N/A   Clear